ECMWFFLT2_sfc_temp_021.txt.gz
Temp
79 80 80 79 79 79 77 74 74 74 73 74 74 74 74 73 72 74 75 74 72 76 78 78 75 78 74 77 73 72 74 74 75 75 75 75 74 74 74 73 73 72 72 72 72 71 71 72 71 71 72 72 72 77 81 84 85 85 87 86 83 80
79 80 80 79 80 79 77 75 79 77 78 75 74 74 75 78 77 79 75 76 76 76 76 76 78 76 77 76 75 72 74 74 74 74 74 74 74 74 73 73 72 72 71 72 70 77 75 71 70 72 72 72 76 80 83 84 83 87 86 86 81 76
79 80 80 81 80 78 78 77 77 77 79 77 78 77 79 79 80 79 79 80 77 78 75 74 76 77 76 74 75 72 73 74 74 74 73 74 74 73 72 72 72 72 72 70 77 80 80 79 76 71 72 75 79 82 82 83 83 87 87 83 80 74
80 79 79 79 79 80 80 79 80 78 79 79 78 77 79 80 78 77 80 75 76 76 72 73 74 74 76 76 75 72 73 74 73 73 73 75 73 73 72 72 72 71 72 78 81 83 83 82 81 78 79 81 82 84 82 82 85 86 86 84 79 73
83 82 81 80 81 79 79 80 80 80 78 78 79 79 78 78 77 76 77 72 73 75 73 74 74 74 76 75 76 77 76 77 78 78 73 78 76 77 75 78 76 75 79 80 82 82 83 83 81 82 82 82 83 83 84 83 84 86 86 79 76 72
90 84 79 78 80 79 78 79 77 75 77 80 79 78 79 78 77 75 76 75 73 74 73 72 72 71 74 74 75 75 79 79 79 79 77 80 80 78 78 79 79 79 80 81 82 82 80 82 82 81 83 82 82 82 83 85 86 85 85 79 75 72
91 88 85 82 80 77 78 78 77 78 78 77 78 77 78 77 77 77 77 75 73 72 71 69 70 70 71 73 75 77 79 79 76 77 76 82 81 78 78 80 80 80 82 83 83 82 82 83 83 83 82 84 83 84 85 85 85 85 85 80 75 71
89 88 86 91 86 83 75 73 73 76 78 75 77 78 78 77 80 79 78 75 73 72 71 71 70 68 68 72 75 77 77 77 79 82 80 81 81 81 78 80 79 80 81 82 82 82 82 83 81 81 82 82 83 83 84 85 84 85 84 80 78 73
89 88 87 87 87 87 86 81 79 73 73 74 75 74 75 79 79 76 75 77 76 74 72 71 69 70 71 72 72 75 77 77 79 78 79 78 78 76 78 81 81 81 81 81 82 81 83 83 81 81 82 83 83 83 83 82 83 84 84 82 79 75
89 90 88 87 85 85 84 84 83 82 82 80 82 75 75 74 75 72 75 79 79 75 73 71 71 73 74 72 72 76 76 74 73 73 74 76 77 77 80 81 81 81 83 81 82 82 82 82 83 81 83 83 83 84 83 83 83 83 84 83 80 76
90 86 88 88 85 84 84 84 86 84 83 82 81 81 81 81 78 78 77 77 78 77 75 75 74 74 74 69 70 76 74 75 73 76 75 77 77 81 81 81 81 81 81 82 83 84 82 82 83 83 83 85 85 84 84 84 84 85 86 84 83 77
87 84 85 87 84 84 84 86 86 86 84 83 81 81 82 82 81 75 74 75 75 76 77 76 76 76 75 74 73 68 73 74 73 75 71 73 75 81 82 83 82 82 83 80 80 82 82 81 83 84 83 86 86 85 85 84 85 86 87 85 85 82
86 83 84 85 85 84 84 86 84 84 82 81 81 81 81 80 73 75 74 74 75 76 75 76 76 76 77 77 75 74 76 76 77 77 75 78 78 79 80 80 80 84 81 80 79 79 82 81 81 83 85 87 86 87 87 86 84 85 85 86 85 85
84 84 83 85 83 86 84 84 84 83 81 81 81 80 80 80 76 78 76 74 77 78 78 78 78 77 77 77 76 75 76 77 77 77 77 77 77 78 79 79 79 80 80 80 79 78 78 78 81 83 82 85 85 84 86 87 85 85 85 85 85 84
82 83 82 83 83 83 83 85 85 84 82 81 80 80 78 74 77 78 79 78 77 77 78 79 78 77 78 73 72 76 77 77 77 76 77 77 77 78 79 76 77 79 79 79 80 80 79 78 79 81 81 80 83 85 83 84 85 85 86 84 84 85
81 81 81 81 81 80 81 82 83 82 82 81 84 82 81 80 81 80 79 78 78 78 78 79 78 78 77 78 79 78 77 77 77 76 76 76 76 78 76 73 73 77 77 79 80 80 80 79 80 81 81 80 80 80 81 82 83 85 86 84 84 83
80 80 80 80 80 80 81 82 82 81 82 82 83 84 84 81 79 78 80 81 79 78 78 78 78 78 77 77 78 77 78 76 76 76 74 75 75 77 77 75 73 76 78 78 81 80 80 79 77 77 79 79 78 78 79 79 81 81 85 83 83 85
80 80 80 80 79 80 81 81 82 82 81 82 82 84 84 84 82 82 80 79 78 79 79 78 78 78 77 77 78 77 77 76 74 72 73 71 68 72 74 76 72 72 77 77 73 70 68 69 71 73 72 77 76 77 78 79 80 80 81 82 82 84
79 79 79 79 79 80 79 80 80 80 80 81 81 81 82 82 81 80 80 79 80 78 78 79 79 79 77 78 78 76 75 76 76 68 67 65 67 67 68 70 70 73 73 73 68 67 67 67 68 70 71 67 69 72 70 72 77 80 81 81 83 83
79 80 80 79 80 80 80 80 79 80 80 80 81 80 81 81 80 80 79 79 79 79 79 78 78 78 77 77 77 77 75 72 73 69 66 66 66 67 67 68 68 68 72 74 71 68 68 67 67 70 69 72 71 73 72 69 71 76 79 80 80 81
79 79 79 79 80 81 79 79 79 79 78 79 79 79 79 79 80 79 80 81 80 80 79 79 80 80 78 77 77 76 76 76 72 67 66 64 67 67 69 70 70 70 72 72 74 73 70 69 69 69 69 69 69 70 72 72 73 76 80 79 79 79
79 79 80 80 80 80 81 81 79 79 80 81 80 79 78 78 77 78 78 78 78 78 78 78 79 78 78 79 78 78 77 76 72 68 67 67 66 68 69 69 70 68 72 71 70 70 70 69 67 66 64 64 67 68 70 71 74 77 71 71 74 76
79 79 80 80 80 79 80 80 81 80 81 80 81 80 80 79 79 79 76 78 77 77 78 78 78 78 78 78 78 78 77 76 76 73 69 67 67 67 68 68 67 65 65 69 68 69 68 70 66 67 66 63 62 63 66 68 72 74 73 73 70 75
79 79 79 79 80 80 79 79 79 80 80 80 77 77 77 78 77 78 77 77 77 77 78 79 79 80 79 78 77 77 77 77 75 75 72 68 68 68 69 69 66 66 66 61 64 66 65 66 68 66 62 63 62 61 60 64 67 71 73 73 74 75
79 79 79 79 79 78 77 77 77 77 78 76 77 77 77 76 77 76 76 76 76 77 78 78 78 79 79 77 77 77 77 77 76 75 76 75 74 73 72 67 66 66 66 64 63 63 65 66 65 66 64 62 59 58 60 61 64 64 70 70 71 72
79 79 79 78 78 78 77 76 75 74 73 73 73 74 73 73 74 75 76 76 77 78 77 77 78 78 78 77 76 76 76 78 77 77 77 77 77 76 74 72 69 69 69 68 64 63 64 65 66 67 67 65 64 59 59 61 62 58 66 66 66 68
79 79 79 78 78 77 76 77 75 75 75 75 74 75 76 76 76 76 76 75 76 76 77 76 76 77 76 76 76 76 76 77 77 76 76 75 75 75 79 78 75 73 70 69 69 65 64 64 65 66 66 67 66 66 66 63 59 59 60 64 67 65
79 79 79 78 77 77 76 76 75 76 76 76 76 74 75 75 76 76 75 75 76 75 76 77 76 76 76 76 76 75 75 75 76 77 77 77 76 76 75 76 75 75 75 74 71 68 66 66 65 64 68 68 68 68 67 66 65 62 59 58 62 66
79 79 78 78 77 77 77 77 76 76 76 78 77 76 77 77 76 76 74 75 76 76 76 76 77 76 76 76 75 75 75 75 75 76 78 76 75 75 73 72 72 73 72 72 72 72 70 68 69 68 66 67 71 71 70 68 67 65 59 58 59 59
79 79 78 77 77 77 77 77 76 76 76 76 76 77 77 75 75 75 74 74 74 75 75 74 75 76 75 76 75 75 75 74 74 75 75 74 73 72 72 72 72 71 72 71 72 72 71 71 72 71 71 70 69 71 72 71 67 67 69 70 64 67
78 79 78 77 77 76 77 77 76 76 76 75 75 75 75 73 74 74 73 73 74 75 75 75 74 74 74 75 74 75 74 74 74 74 75 75 74 74 72 71 71 72 71 71 71 70 70 71 71 70 71 72 71 70 68 67 67 68 67 66 67 68
78 78 77 77 77 76 77 77 77 77 76 76 75 75 74 73 74 73 73 73 75 74 74 74 74 73 73 74 73 73 73 74 73 73 73 74 74 74 74 73 73 72 71 71 71 70 70 69 69 70 69 70 70 70 70 69 69 68 67 68 67 67
77 78 77 77 76 76 76 76 77 77 76 76 75 75 75 74 75 74 75 74 74 74 74 73 73 72 72 72 73 72 72 73 72 73 73 74 73 73 73 73 72 71 71 70 70 70 69 68 68 69 69 70 71 71 70 70 70 68 68 68 67 66
77 77 77 77 76 76 76 76 77 77 77 77 75 75 76 75 75 76 76 75 75 75 74 73 73 72 73 73 73 73 73 73 73 73 72 72 72 73 73 75 72 71 70 70 70 69 68 68 68 68 70 70 70 70 69 69 69 68 67 66 65 65
77 77 77 77 76 76 76 77 77 78 77 77 76 77 77 77 76 76 76 75 76 76 75 75 74 74 74 73 73 73 73 72 72 72 72 71 72 72 72 73 72 70 70 70 70 70 68 68 67 68 67 69 69 70 69 71 70 69 70 68 66 65
77 77 77 76 76 76 76 77 77 76 77 77 78 77 77 78 77 77 76 76 75 76 77 76 75 74 73 74 73 72 72 72 72 72 72 72 72 72 71 71 71 70 69 71 68 68 69 68 67 67 67 68 70 70 69 70 70 70 70 68 67 66
78 78 77 77 76 77 76 76 76 77 77 77 77 77 77 77 77 76 76 76 76 76 77 76 75 74 73 74 73 73 72 72 71 72 71 72 72 72 71 71 70 69 69 70 70 69 69 68 68 68 68 67 68 70 69 69 69 69 68 68 68 68

ECMWFFLT2_sfc_temp_024.txt.gz
Temp
79 79 78 78 76 75 74 74 74 74 74 75 75 75 75 74 74 74 74 73 73 74 72 72 73 73 73 73 72 72 74 75 75 75 75 75 75 74 74 74 73 72 72 72 72 72 72 72 72 72 72 72 72 71 73 75 78 79 77 75 74 73
79 79 78 77 77 76 74 75 76 75 75 74 74 74 75 75 76 74 74 74 74 72 70 70 71 72 72 74 73 73 73 74 74 75 74 75 74 74 74 73 73 72 72 72 72 72 71 72 71 72 72 72 71 72 74 77 78 79 76 75 73 73
80 80 79 78 77 77 75 76 76 76 76 75 76 76 76 76 75 75 75 74 72 70 69 70 69 70 71 73 73 73 74 74 74 74 74 74 74 73 73 73 72 72 72 71 71 72 73 73 70 72 72 71 71 73 76 77 76 76 75 74 73 74
80 79 78 76 76 76 76 76 77 76 76 75 75 76 77 76 74 74 72 72 71 70 70 69 72 74 74 72 72 72 73 74 74 74 73 74 74 73 73 72 72 72 71 73 73 74 76 75 73 70 70 71 72 75 78 76 77 77 75 75 74 73
81 79 79 76 76 76 76 76 76 75 73 72 73 75 75 73 70 71 72 71 73 72 71 70 71 71 71 72 72 72 73 73 73 73 73 73 72 74 72 72 71 71 72 73 74 75 76 75 73 72 72 72 74 76 78 77 77 77 75 73 72 73
81 81 77 76 77 76 75 74 74 73 73 73 73 74 75 69 69 68 69 71 71 71 70 70 69 69 71 72 73 73 73 73 74 74 73 74 74 73 72 74 73 72 72 73 75 76 74 74 74 73 75 74 76 75 76 76 78 75 73 71 71 73
81 79 79 79 78 77 74 73 73 73 72 71 72 73 70 68 68 69 71 69 70 70 70 70 69 68 69 72 71 73 73 74 73 71 74 74 75 73 73 73 73 73 73 75 77 78 77 76 75 77 75 77 77 77 76 77 78 75 73 72 71 72
82 81 79 81 79 79 77 75 74 74 73 72 70 69 68 69 69 68 70 72 71 72 71 69 70 69 69 70 71 73 73 73 74 72 71 72 73 72 73 70 71 69 74 77 79 77 76 79 76 75 77 76 76 76 76 78 77 76 74 71 72 72
82 82 80 81 80 79 77 75 73 73 72 72 69 70 71 70 69 68 69 73 73 71 71 71 71 71 69 69 70 72 72 71 71 69 69 70 69 69 69 71 73 72 73 76 76 75 77 79 76 75 75 76 77 77 78 77 77 78 75 73 72 72
86 86 82 80 78 77 76 75 73 72 72 73 71 71 72 71 71 70 69 73 73 71 72 72 71 72 70 69 69 69 69 70 70 68 68 67 69 68 69 69 72 75 77 77 76 76 75 77 78 76 77 76 77 77 75 76 77 77 76 74 72 71
87 83 86 84 81 78 76 75 76 74 72 71 70 70 71 70 69 70 71 72 73 73 71 72 72 71 70 70 68 67 67 68 69 68 69 68 69 69 69 71 73 74 76 77 76 76 75 76 78 79 77 78 77 76 76 77 77 78 78 74 73 71
83 80 81 84 80 81 80 81 76 75 73 70 70 69 69 69 69 71 72 71 72 73 72 72 70 71 70 68 67 67 67 68 68 68 70 69 69 70 69 70 73 76 75 75 73 74 75 74 77 79 79 79 79 78 77 76 78 79 78 74 73 73
83 80 81 81 81 80 80 83 80 76 71 70 67 67 67 68 69 72 73 72 73 74 74 71 68 67 70 69 68 67 68 69 70 70 70 71 71 71 71 71 69 71 72 74 74 73 77 75 75 77 78 79 78 80 80 79 77 77 77 76 74 74
80 81 79 80 79 81 80 78 79 78 74 69 68 67 68 68 69 72 73 73 74 74 74 73 67 68 67 69 68 69 69 70 71 71 69 68 70 72 71 73 71 73 75 73 73 72 72 73 74 75 76 79 78 77 78 80 77 77 77 77 77 74
78 78 79 79 79 79 78 80 81 78 77 76 75 72 69 70 72 73 73 73 73 74 75 75 70 69 68 70 68 69 70 70 69 68 66 66 67 69 72 72 72 73 73 72 74 74 73 72 72 75 75 74 75 79 77 77 78 77 78 76 77 76
77 77 76 76 76 76 78 77 77 79 76 77 77 77 75 74 74 74 74 73 75 74 75 73 70 69 67 68 69 70 69 68 67 67 67 66 66 68 72 72 73 72 69 72 73 73 73 72 73 74 75 73 74 74 74 75 76 78 80 78 78 77
76 77 76 77 77 77 77 77 76 77 78 77 77 76 77 76 76 74 73 72 73 74 73 74 72 71 69 70 69 70 68 67 67 67 66 66 66 70 71 72 70 70 70 70 74 72 70 70 70 71 70 68 68 68 71 71 74 75 79 76 76 78
76 77 76 75 76 76 77 77 76 76 76 78 77 77 77 78 75 75 75 74 75 74 74 73 72 69 69 70 69 67 66 65 66 64 66 66 67 69 68 69 68 69 69 68 66 65 64 65 69 70 68 67 66 67 68 69 70 71 74 76 76 76
76 76 75 76 76 75 75 74 74 76 75 76 75 75 76 75 75 75 75 75 75 74 74 73 74 72 70 70 68 66 65 66 66 65 66 65 66 67 67 67 66 66 66 65 65 65 65 64 65 67 67 66 67 69 67 68 69 70 72 74 75 78
75 75 75 75 75 75 75 74 73 75 75 74 75 75 75 75 75 74 75 75 75 74 76 74 75 74 73 72 70 67 66 66 66 66 66 65 65 66 66 67 66 65 64 63 66 65 65 64 64 65 65 66 66 67 69 68 69 71 71 72 72 72
74 75 74 74 74 74 74 73 74 73 71 74 74 74 73 73 74 73 74 76 75 74 74 73 74 74 72 74 72 70 66 65 66 66 66 66 68 67 68 68 67 66 64 63 64 65 65 64 63 63 64 65 65 67 67 68 70 71 71 70 71 71
74 74 75 74 75 75 76 74 72 73 73 74 74 73 72 72 72 73 73 73 73 74 74 73 73 73 73 72 72 72 70 67 68 67 66 66 67 67 67 67 68 65 66 64 62 64 64 64 61 60 60 61 64 65 66 66 68 71 69 70 70 71
74 74 75 75 75 73 73 74 74 74 74 73 74 73 75 74 74 74 72 73 73 73 74 74 73 72 73 73 72 72 71 71 70 69 67 66 66 66 66 67 66 63 62 64 63 64 63 64 60 62 63 61 60 59 61 65 66 68 69 68 68 69
74 74 74 75 74 74 74 74 74 73 72 72 71 72 72 72 73 73 72 73 72 72 73 73 75 76 73 72 71 71 71 70 70 70 68 66 66 66 66 65 65 64 64 60 62 63 64 63 63 61 57 59 59 59 58 59 61 63 66 68 68 67
74 74 74 74 73 73 73 72 72 72 72 70 71 71 70 70 71 71 71 71 71 73 73 72 73 73 74 72 71 70 71 71 70 70 70 68 66 66 66 65 66 64 65 62 61 62 63 64 64 64 61 59 57 56 57 59 61 62 65 65 68 68
75 74 74 74 73 72 71 70 69 68 66 67 66 67 67 66 69 69 70 71 73 73 73 72 72 72 73 72 72 73 70 72 70 70 69 69 70 69 67 67 66 64 63 64 64 62 61 63 64 64 65 63 62 58 57 60 60 56 63 65 64 66
74 74 74 73 73 72 71 70 70 69 69 68 67 69 69 70 69 70 71 69 71 71 73 71 70 71 71 71 70 70 70 70 71 70 69 69 69 69 71 72 70 68 66 63 64 61 61 60 62 63 64 64 64 64 64 60 57 58 57 61 64 63
74 74 74 73 73 72 71 70 69 70 70 69 69 68 69 70 70 70 70 70 70 71 72 72 71 72 71 71 70 70 70 69 70 72 71 69 68 68 68 70 69 68 67 66 65 63 61 61 60 60 62 63 63 64 64 64 63 60 58 56 59 63
74 74 73 73 72 72 72 70 70 71 70 71 70 70 70 71 70 70 69 71 70 71 70 71 71 71 70 71 70 69 69 68 68 69 71 70 68 69 67 66 66 65 66 66 66 66 63 63 64 61 60 62 64 64 64 65 64 62 59 56 57 58
74 74 73 73 72 72 72 71 70 70 70 69 69 70 70 69 68 69 69 69 69 69 68 69 70 70 69 71 69 69 69 68 67 68 68 67 67 66 66 65 65 65 66 65 65 65 64 65 65 65 66 65 64 64 64 63 63 62 63 62 58 60
74 74 73 72 72 72 72 71 71 71 70 69 69 69 68 67 68 68 68 68 68 69 69 68 68 68 68 69 67 68 68 68 67 67 68 69 66 67 66 66 66 66 65 65 64 64 64 64 64 64 64 64 62 62 61 61 61 61 61 60 59 60
74 73 73 73 72 72 72 71 71 71 71 70 70 69 68 67 68 68 68 67 68 68 68 68 67 66 67 68 67 67 68 67 67 67 67 67 67 68 67 67 66 65 64 65 65 65 64 63 63 63 62 62 63 64 63 61 62 62 60 59 59 59
73 73 73 73 71 71 71 71 71 71 71 71 70 70 69 68 69 68 68 68 67 67 67 66 66 66 66 67 67 67 67 66 66 66 66 67 66 67 67 66 66 65 64 64 63 63 61 61 62 61 61 64 64 64 62 63 63 62 62 61 61 58
73 73 73 72 72 71 71 71 72 71 71 71 70 70 69 69 69 69 69 68 68 68 67 67 67 66 66 68 67 68 68 66 67 66 66 66 66 67 68 68 66 64 64 64 64 63 62 62 62 62 63 61 62 63 62 63 62 62 61 60 57 57
73 73 73 72 71 71 71 72 72 72 71 71 70 70 70 70 70 69 69 69 69 69 68 68 67 67 68 67 67 67 67 66 67 66 66 66 68 67 66 67 66 64 64 64 64 63 62 62 62 62 61 61 63 62 61 63 62 62 63 61 60 58
74 73 73 72 72 71 71 72 72 71 71 71 71 71 71 71 70 71 70 70 70 70 70 68 69 68 67 68 67 67 67 66 67 66 67 67 67 66 67 65 64 64 63 67 63 63 62 62 62 61 61 62 62 62 62 62 63 62 62 61 61 61
74 74 73 72 72 72 71 71 71 72 71 71 70 70 70 70 70 71 72 70 70 72 70 70 69 68 67 67 67 66 66 66 66 66 66 67 67 65 66 65 64 64 63 65 63 63 63 62 63 62 62 62 62 61 61 62 62 62 61 61 61 61

ECMWFFLT2_sfc_temp_030.txt.gz
Temp
71 71 71 72 72 72 74 74 74 74 74 74 74 74 74 75 74 74 74 73 72 70 69 70 70 70 74 70 71 72 74 74 75 75 74 74 74 74 73 73 72 72 71 71 71 71 71 71 71 71 72 71 71 66 65 67 69 68 68 67 68 68
70 70 71 71 72 72 73 73 72 72 72 73 74 74 73 72 74 71 73 71 69 70 67 66 68 73 69 71 71 72 73 74 74 74 74 74 74 73 73 73 72 71 71 71 71 64 65 68 69 70 71 72 66 64 65 68 68 68 68 67 67 70
70 70 70 71 71 72 71 70 70 71 72 73 74 73 70 72 68 69 69 69 68 67 67 67 68 70 69 72 71 72 73 74 74 74 73 73 73 73 73 72 71 71 70 71 67 63 63 63 63 69 69 65 63 65 66 68 68 68 68 67 66 72
71 70 70 70 70 70 70 70 70 70 70 70 70 70 68 68 68 68 68 67 67 67 66 65 74 75 74 69 68 71 73 73 74 74 73 72 72 72 73 72 71 71 70 69 64 63 64 62 63 63 64 63 63 65 66 67 68 67 67 70 68 73
72 71 70 70 70 69 69 69 69 69 69 68 67 66 66 66 66 67 67 67 67 67 66 65 64 66 66 66 65 66 68 68 68 68 71 67 67 69 69 68 66 67 64 64 64 63 63 64 65 65 65 64 64 65 66 67 68 67 67 68 68 72
72 72 70 69 69 70 70 68 68 68 67 67 66 65 65 65 65 65 66 67 67 66 66 65 64 64 65 64 65 66 66 67 67 67 68 67 66 67 66 67 67 66 65 64 64 64 64 65 65 65 64 64 64 65 65 67 67 67 67 66 69 73
72 71 71 71 70 70 68 68 68 68 67 66 65 65 64 64 64 64 65 67 66 66 66 65 65 64 64 65 65 66 66 66 67 67 68 66 67 67 66 66 66 66 65 64 64 65 64 65 64 66 65 66 65 65 66 67 67 67 66 67 70 72
72 71 70 72 70 69 68 68 69 71 68 68 66 64 64 63 64 64 65 66 67 66 65 65 65 65 64 65 65 66 66 66 66 67 68 67 67 66 66 65 65 65 66 66 66 65 65 67 66 65 66 65 65 65 66 66 67 67 66 66 68 72
73 72 71 71 70 69 68 68 69 67 66 70 65 64 64 64 64 65 65 66 68 65 65 65 64 65 63 65 65 65 65 65 66 66 67 65 66 66 66 66 65 65 65 66 65 65 66 67 66 66 66 66 65 66 66 66 66 67 66 66 67 70
73 72 71 71 69 68 68 68 67 67 66 69 64 64 65 64 63 64 64 65 67 66 65 65 65 64 64 64 65 65 65 65 65 66 66 65 65 65 65 65 65 66 67 66 66 66 66 66 68 67 67 68 65 67 66 67 66 67 67 66 66 68
73 73 72 71 69 69 68 67 67 67 67 65 65 66 65 64 64 63 64 65 66 67 66 65 65 65 64 64 64 64 64 65 64 64 64 65 65 65 64 65 66 65 64 64 66 66 66 67 68 69 68 68 67 67 67 67 67 67 67 66 66 67
73 73 71 71 70 68 68 68 68 66 66 66 66 64 64 64 66 64 65 64 65 67 66 65 65 65 64 64 63 64 64 64 64 64 64 65 64 64 64 65 66 66 65 65 65 66 66 66 67 71 70 69 67 66 67 67 68 68 68 67 66 67
73 72 71 70 69 68 68 69 67 66 66 67 66 65 64 64 64 65 66 66 66 66 66 64 64 65 65 62 63 63 62 63 63 64 63 64 64 64 64 64 63 65 64 64 64 65 67 66 66 66 66 69 67 68 68 68 67 67 67 67 67 67
71 71 69 69 68 68 67 66 66 65 67 65 64 64 65 63 64 64 65 65 66 66 65 64 64 64 64 63 62 62 62 62 63 63 63 63 63 64 63 63 64 64 66 64 64 64 63 64 64 64 65 68 66 65 66 67 67 67 67 66 66 66
70 69 70 68 68 68 67 67 65 64 64 62 63 62 62 62 63 64 65 64 65 66 65 64 65 65 65 64 63 62 63 63 63 62 62 62 62 63 63 63 64 64 63 63 64 63 63 62 63 64 63 63 65 66 65 66 65 68 68 67 66 65
68 68 68 68 67 67 67 66 65 66 63 62 63 63 62 63 64 64 65 65 65 66 65 64 64 64 63 63 63 62 63 64 64 63 62 62 63 63 63 64 64 63 61 63 63 62 63 63 63 63 63 63 63 64 64 64 65 66 68 67 66 66
68 67 67 67 67 66 66 65 64 64 63 63 62 62 62 63 64 65 64 64 65 66 64 64 64 64 63 63 62 62 63 63 63 63 62 61 62 62 64 64 62 64 63 61 63 63 62 63 63 63 63 63 63 63 64 64 64 65 68 66 65 66
68 68 67 67 66 65 65 64 63 63 64 64 63 63 64 65 64 64 64 64 64 65 64 64 64 63 63 63 63 63 62 62 63 62 62 61 61 62 63 63 62 63 63 63 61 61 60 61 64 63 62 63 62 62 63 64 64 65 65 66 66 66
68 66 66 65 65 64 63 62 61 63 63 62 63 62 63 62 62 64 63 64 64 64 64 63 63 63 61 63 62 62 61 61 62 61 62 62 62 62 62 62 62 61 61 61 61 61 61 61 62 62 62 62 62 63 62 62 64 64 64 65 67 69
66 66 65 64 64 63 63 63 62 62 62 62 62 63 62 62 62 64 65 65 64 62 64 63 63 62 62 61 60 60 60 62 62 61 62 62 62 62 61 60 59 61 61 62 62 61 61 61 60 61 61 61 62 63 64 63 63 64 64 64 64 64
64 65 65 64 62 62 62 61 60 61 60 60 62 61 63 62 62 62 63 64 64 63 63 63 64 62 61 64 60 60 61 62 63 62 62 62 63 62 60 60 61 60 60 59 60 62 61 60 60 59 58 59 60 62 63 62 62 63 64 64 65 65
64 64 64 63 63 62 60 62 62 61 60 60 61 61 60 61 61 63 61 61 62 61 61 62 63 62 62 61 60 60 60 62 62 61 61 61 61 62 62 61 61 60 60 59 59 62 61 59 57 56 58 56 58 60 61 61 60 63 63 64 63 64
64 64 63 64 63 63 60 61 62 59 63 59 60 60 60 61 63 63 61 61 60 60 60 60 61 61 62 62 60 59 60 60 61 63 62 61 61 60 60 61 60 59 58 58 59 61 59 59 56 57 56 57 54 56 57 58 60 62 63 64 63 64
64 63 63 63 64 61 62 61 62 62 61 61 61 61 60 59 61 61 61 61 61 60 60 60 62 62 61 59 59 59 59 60 61 61 60 59 58 59 59 59 60 59 59 57 58 58 60 59 58 57 56 55 55 54 52 56 55 58 60 63 64 65
64 62 61 62 62 63 64 62 62 61 62 62 61 59 59 58 58 60 60 60 60 60 61 62 61 61 62 59 58 59 59 60 60 60 60 59 58 58 58 57 59 58 58 58 58 59 61 60 59 60 56 54 53 52 52 53 54 56 59 60 62 63
62 61 62 62 64 65 64 63 62 61 59 57 56 56 56 57 57 58 59 60 60 60 61 60 60 61 61 61 59 59 58 59 59 60 61 60 59 59 59 58 57 57 58 58 58 59 60 61 59 60 60 57 56 53 53 56 54 53 58 59 59 61
62 62 62 62 64 65 63 63 62 61 60 59 58 56 56 56 57 58 58 59 59 58 59 60 59 59 60 61 60 60 60 60 60 60 60 59 58 58 60 61 59 59 58 58 59 56 59 59 59 59 60 59 60 61 57 55 53 54 53 56 57 59
62 63 62 63 63 65 63 61 60 60 60 58 59 59 58 58 58 58 58 58 57 58 58 59 59 59 60 61 60 59 59 60 61 61 61 59 58 58 60 60 60 58 58 59 59 59 58 59 57 56 59 59 59 60 59 59 56 54 51 52 56 56
62 63 61 63 64 64 64 62 61 61 59 58 59 60 59 60 58 58 57 57 57 57 57 57 58 58 58 60 61 59 59 59 59 59 61 60 59 59 58 57 57 57 56 57 59 58 58 56 57 57 58 57 58 58 58 57 58 56 54 51 53 54
62 63 62 62 63 63 63 62 61 60 60 58 60 59 58 58 57 57 57 55 56 56 56 56 56 56 57 58 58 59 58 58 57 59 59 58 58 58 57 57 56 57 57 56 56 57 56 55 56 56 57 57 56 58 57 56 55 55 56 55 54 54
63 63 62 62 63 63 63 63 63 61 61 60 59 59 58 57 56 56 56 55 56 55 55 56 56 55 55 56 56 58 57 56 57 58 58 57 57 57 56 56 57 57 57 56 55 55 56 55 56 57 57 56 55 56 55 54 54 55 54 52 51 51
63 63 62 62 63 63 63 62 63 63 62 61 60 60 59 58 57 57 56 55 55 55 54 55 55 55 55 55 57 55 56 56 56 55 56 56 56 57 56 56 55 56 55 55 55 56 54 54 54 54 54 54 54 56 55 55 55 54 54 53 53 51
62 62 62 61 62 63 62 62 63 63 62 61 60 60 59 58 58 57 56 56 55 54 54 56 55 55 56 55 56 57 57 57 56 56 55 56 55 55 56 55 55 54 54 54 53 54 53 51 53 54 52 53 54 55 54 54 54 54 52 52 51 49
60 61 61 61 61 61 60 61 62 63 62 61 60 59 58 59 58 58 58 57 57 56 55 56 55 55 56 55 55 56 56 55 54 55 56 55 55 55 55 56 55 55 54 52 53 53 52 51 51 51 51 52 53 53 52 53 52 53 52 51 48 49
58 60 62 61 60 60 58 59 61 62 62 61 60 59 58 59 58 58 58 58 57 56 57 56 56 58 55 55 54 54 54 55 55 56 56 56 57 55 55 56 55 53 53 52 53 53 52 54 55 53 52 52 53 52 52 52 52 53 52 51 51 50
59 59 59 59 59 59 59 59 60 60 61 61 60 60 59 59 58 59 59 59 57 57 58 57 57 57 55 57 55 55 55 54 54 55 55 56 56 56 55 54 53 53 53 55 54 52 51 52 52 51 51 51 53 51 52 53 53 52 52 52 52 49
59 59 59 60 58 59 59 59 59 60 60 61 60 60 61 60 59 59 59 58 58 58 58 58 58 57 56 55 56 56 55 54 54 54 53 54 54 54 54 56 55 52 53 52 54 51 51 53 50 50 50 50 51 51 50 51 51 53 52 51 52 50

ECMWFFLT2_sfc_temp_033.txt.gz
Temp
72 72 72 72 71 72 73 74 74 74 74 74 74 74 74 74 74 74 74 73 71 69 69 69 70 69 73 69 71 72 74 74 74 74 74 74 73 73 73 72 71 71 71 71 70 70 70 70 70 71 71 71 70 66 67 66 66 66 65 66 67 64
72 72 72 72 72 72 72 73 70 71 72 73 73 74 72 72 74 70 74 70 68 70 67 67 68 73 69 71 71 72 74 74 74 74 73 73 73 73 72 72 71 71 71 70 71 62 62 66 69 70 71 69 63 62 66 66 66 66 66 65 65 66
71 71 72 72 71 71 71 70 69 70 71 73 74 72 70 71 68 68 68 68 68 67 66 67 67 70 69 72 70 72 73 74 74 74 73 73 73 72 72 71 71 71 70 70 64 60 60 60 60 68 67 63 61 62 64 65 65 66 66 65 65 70
71 71 71 70 70 70 70 70 69 69 69 69 69 69 68 68 68 67 67 66 66 67 66 65 73 75 74 69 69 71 73 74 74 74 73 72 73 72 72 72 71 71 69 67 61 62 61 60 61 61 61 61 61 62 64 65 65 65 65 68 65 71
70 70 70 70 70 70 70 70 69 68 68 67 67 66 66 66 67 67 66 66 66 66 65 64 64 66 66 66 66 67 68 67 68 68 72 66 67 68 68 66 66 66 62 63 63 62 61 61 61 62 62 61 63 62 64 65 65 64 65 66 66 71
69 70 70 70 70 71 70 69 68 67 67 67 66 65 65 65 65 66 66 67 67 65 64 64 63 63 65 65 66 66 65 65 66 66 67 66 66 65 64 66 66 65 63 61 62 62 62 63 63 62 62 62 62 62 63 64 64 65 65 65 67 72
68 69 70 71 70 71 69 69 68 67 67 66 65 65 64 64 64 66 67 68 66 66 65 64 63 63 64 65 66 66 65 65 65 65 66 66 65 65 65 65 64 65 63 62 62 62 62 62 62 63 63 63 63 63 63 64 65 65 65 65 68 72
69 68 68 70 69 69 68 68 68 70 67 68 65 64 63 63 64 65 67 67 67 66 65 64 64 63 64 63 65 66 65 65 65 65 65 66 65 64 65 65 64 63 64 63 63 63 62 64 62 62 64 62 62 62 64 64 65 65 65 65 67 71
70 69 68 69 68 68 67 67 67 67 66 70 64 64 63 64 64 64 65 67 67 65 65 64 63 63 63 64 64 65 64 64 64 65 65 65 64 64 65 65 64 64 63 62 62 63 63 64 62 62 62 63 62 62 63 64 64 64 64 64 66 68
70 70 69 69 68 67 67 67 67 66 66 69 64 64 64 63 64 65 64 65 66 65 65 64 63 63 63 63 64 64 64 63 63 63 65 63 64 64 64 65 64 64 64 63 63 63 64 64 65 64 63 63 63 64 64 64 64 64 65 65 66 67
71 71 70 69 68 67 67 67 67 66 67 66 65 65 64 63 63 64 64 65 65 65 65 63 63 63 62 63 62 62 62 62 62 63 64 63 63 64 64 65 64 64 63 62 64 64 64 65 64 65 64 64 63 63 64 65 64 65 65 65 65 65
71 71 70 69 69 67 68 67 67 66 65 65 65 64 63 63 65 63 64 64 64 64 65 63 63 63 63 63 62 62 61 62 61 62 63 63 63 63 64 64 65 65 63 63 63 63 62 63 64 65 66 65 63 63 63 64 65 65 65 64 65 65
71 70 69 68 68 67 67 68 66 65 65 66 65 64 62 63 63 63 63 63 65 66 65 64 63 63 65 62 62 62 62 62 62 61 62 63 64 63 62 62 62 63 62 62 62 63 64 62 61 62 63 65 64 65 65 65 65 65 64 65 64 65
69 69 68 68 67 67 67 66 66 65 66 64 64 63 63 62 63 63 64 63 65 67 65 64 63 62 63 61 61 61 61 61 62 63 62 62 63 63 62 62 62 62 64 62 62 61 61 61 61 62 63 64 63 63 64 65 64 65 64 64 65 64
69 68 68 67 67 66 65 66 65 63 63 63 64 62 61 62 62 62 64 63 64 65 65 65 64 63 62 62 61 61 61 62 63 62 61 61 62 61 61 61 61 62 60 60 61 62 61 61 60 62 62 63 64 64 63 64 65 65 65 64 64 64
67 67 67 67 66 66 65 64 64 65 62 61 61 62 61 62 62 62 63 63 64 64 64 64 63 62 61 61 61 61 62 62 62 61 61 61 61 61 60 61 62 62 61 61 62 61 61 61 61 62 62 62 62 63 63 62 64 65 65 65 64 63
66 66 66 66 65 64 63 63 63 62 62 61 61 60 61 62 64 64 63 63 64 64 64 63 63 62 61 61 61 60 61 62 62 62 60 60 60 61 61 63 61 62 61 61 61 61 61 61 62 62 62 62 62 62 62 63 62 62 66 63 63 64
66 66 65 65 64 63 63 62 61 62 63 61 60 61 62 63 63 63 63 63 62 64 63 62 62 62 61 63 62 61 61 61 61 61 61 61 60 61 62 61 61 61 61 60 61 61 60 60 62 62 61 61 61 61 62 63 63 64 63 63 62 63
66 64 64 64 63 61 60 60 60 61 60 59 59 60 61 61 61 62 61 62 63 64 64 61 62 62 61 62 62 62 61 60 61 61 62 62 61 62 62 60 60 60 61 61 60 60 61 61 61 61 61 61 61 61 61 62 64 64 63 62 64 65
64 64 63 62 62 60 60 60 60 59 60 60 59 61 59 59 59 60 62 61 60 60 63 62 61 61 61 61 61 61 60 61 62 62 62 62 62 62 61 60 60 60 59 61 62 61 61 61 60 60 60 61 61 62 62 62 63 64 63 62 62 61
63 64 64 62 61 61 58 57 58 58 58 57 60 59 59 59 59 60 60 61 60 60 60 61 62 60 60 64 62 61 61 62 62 61 62 62 62 61 60 60 60 60 60 59 60 61 61 60 60 58 58 58 60 61 63 61 62 62 63 63 62 63
63 63 63 63 63 61 59 59 58 58 57 58 59 59 59 58 59 60 58 58 58 57 58 59 61 60 61 60 60 61 62 62 63 62 62 62 62 63 62 61 60 59 60 59 60 62 61 60 56 56 56 56 56 58 60 60 61 62 63 63 63 64
63 63 62 63 63 61 57 59 60 57 59 56 57 58 58 59 59 59 57 57 57 58 57 57 58 60 60 59 59 60 61 62 62 63 62 62 62 61 61 61 59 59 58 59 60 61 58 58 56 56 56 57 53 56 57 58 60 62 62 63 62 63
62 62 61 63 63 60 60 59 59 59 57 57 59 58 57 57 58 59 58 58 58 58 58 57 57 59 58 58 58 58 60 62 62 62 61 61 60 60 60 61 59 58 57 56 57 58 60 59 57 56 56 54 54 53 52 56 55 58 61 62 62 63
62 62 61 62 61 61 61 59 59 59 59 60 59 57 57 56 57 59 59 58 57 57 58 58 57 57 58 56 57 59 61 61 62 60 60 60 60 59 59 59 58 57 57 57 57 59 60 61 59 59 56 53 51 50 51 53 53 56 59 60 60 62
60 60 61 60 61 62 61 60 59 58 57 55 57 55 54 56 56 57 57 56 56 56 58 57 56 57 58 58 56 56 56 58 58 58 58 58 59 58 57 58 58 58 57 57 58 58 59 60 59 58 57 56 54 52 54 57 56 55 57 59 59 61
61 60 60 60 61 63 60 60 60 60 58 57 56 54 53 53 55 55 55 56 55 56 56 58 56 56 57 58 57 57 57 57 57 57 59 57 57 57 59 59 59 58 57 57 57 57 59 58 58 57 58 58 60 61 59 56 53 53 54 55 57 59
61 61 60 61 61 62 61 58 57 56 57 56 56 56 55 55 54 55 55 55 55 55 55 56 57 56 57 58 58 57 57 57 58 58 58 56 55 56 58 59 58 57 57 57 58 58 58 58 56 55 57 56 58 58 58 57 54 55 51 52 54 56
60 60 59 60 61 60 62 59 59 58 56 56 56 56 55 55 55 54 55 54 55 54 55 54 54 56 55 58 59 57 57 57 57 57 59 57 56 56 55 55 55 55 55 56 57 56 56 55 55 53 54 55 56 56 56 56 56 56 53 50 52 53
59 59 59 59 60 59 60 60 58 57 57 55 56 54 54 54 53 53 54 53 53 54 54 54 54 53 55 55 55 56 56 56 56 57 57 55 54 54 54 54 53 54 55 55 54 55 54 53 53 54 55 56 54 54 54 55 54 53 55 54 52 54
58 59 59 58 59 59 59 60 59 59 59 58 56 55 55 53 53 54 54 53 53 53 53 53 54 53 53 54 54 56 55 54 56 57 55 54 54 53 53 53 53 54 54 54 54 54 54 53 53 53 54 55 54 53 53 51 53 53 52 51 52 52
58 59 58 58 58 59 59 59 59 59 59 58 57 57 55 54 53 53 52 52 52 52 53 53 53 53 53 53 54 53 53 53 54 53 53 53 53 53 53 53 53 53 52 52 52 54 52 52 52 52 52 53 54 55 55 54 54 53 54 53 51 52
58 59 59 59 58 58 57 58 59 59 58 58 58 56 56 55 53 53 52 51 51 52 52 53 53 54 52 52 54 54 54 54 54 55 53 53 52 53 54 53 53 52 52 51 50 51 50 49 50 51 50 50 50 52 52 52 53 52 51 50 51 48
59 60 61 60 59 58 58 58 59 59 58 59 57 57 56 58 56 54 54 52 52 52 52 52 52 53 54 53 54 55 54 53 53 52 53 53 53 53 53 53 53 52 52 50 51 51 50 50 50 49 49 51 51 50 50 50 49 50 48 48 46 47
60 60 60 59 59 58 58 59 59 59 60 59 59 59 58 58 56 54 53 52 52 51 52 52 52 53 53 53 52 52 52 52 52 53 53 54 55 53 53 54 53 52 52 51 51 51 50 51 52 50 50 50 51 50 48 49 50 50 50 50 50 48
60 59 59 58 59 59 58 60 58 59 59 60 60 60 59 58 56 54 54 54 53 52 53 52 51 53 52 53 52 52 53 51 51 52 52 52 52 53 52 52 51 53 53 53 52 51 49 50 49 49 49 48 51 48 48 49 50 49 50 49 49 46
58 60 60 59 57 58 58 59 58 59 58 59 59 59 60 59 58 57 55 54 54 53 52 52 53 54 52 53 52 52 52 51 51 52 52 52 52 51 51 52 52 51 51 50 52 50 49 50 47 48 48 49 49 49 48 48 49 49 49 48 48 47